Location: Alphen
(52.1351°N, 4.6549°E)
Time: 02:02:18
(UTC+00:00)

Cosmos 1953 Rocket - Pass Details

Date: 27 January 2021
Orbit: 604 x 634 km, 82.5° (Epoch: 27 February)

Event Time Altitude Azimuth Distance (km) Brightness Sun altitude
Rises 05:15:21 0° 352° (N) 2,875 6.9 -20.3°
Reaches altitude 10° 05:17:37 10° 357° (N) 1,968 6.1 -20.0°
Maximum altitude 05:21:53 53° 75° (ENE) 750 4.3 -19.3°
Drops below altitude 10° 05:26:08 10° 153° (SSE) 1,963 6.6 -18.7°
Sets 05:28:24 0° 158° (SSE) 2,867 7.4 -18.3°
